Lincoln, NE

4:09 AM CST on November 13, 2019 (GMT -0600)
Lincoln Municipal

Weather History for KLNK - August, 2019

Change the Weather History Date:

Monday, August 12, 2019

  Actual Average Record
Temperature  
Mean Temperature 79 °F 76 °F  
Max Temperature 90 °F 88 °F 107 °F (1936)
Min Temperature 68 °F 65 °F 47 °F (1964)
Degree Days  
Heating Degree Days 0 0  
Month to date heating degree days 0 0  
Since 1 June heating degree days 6 17  
Since 1 July heating degree days 0 1  
Cooling Degree Days 14 11  
Month to date cooling degree days 154 141  
Year to date cooling degree days 900 852  
Since 1 June cooling degree days 828 773  
Growing Degree Days 30 (Base 50)    
Moisture  
Dew Point 70 °F    
Average Humidity 76    
Maximum Humidity 93    
Minimum Humidity 59    
Precipitation  
Precipitation 0.52 in 0.11 in 2.94 in (1982)
Month to date precipitation 1.34 1.28  
Year to date precipitation 23.21 19.37  
Snow  
Snow 0.00 in 0.00 in 0.00 in (2006)
Month to date snowfall 0.0 0.0  
Since 1 June snowfall 0.0 0.0  
Since 1 July snowfall 0.0 0.0  
Snow Depth 0.00 in    
Sea Level Pressure  
Sea Level Pressure 29.82 in    
Wind  
Wind Speed 6 mph (South)    
Max Wind Speed 30 mph    
Max Gust Speed 37 mph    
Visibility 9 miles    
Events Rain , Thunderstorm    
T = Trace of Precipitation, MM = Missing Value Source: NWS Daily Summary

Daily Weather History Graph

Daily Weather History Graph

Search for Another Location

Airport or City:

Astronomy

Aug. 12, 2019 Rise Set
Actual Time 6:33 AM CDT 8:29 PM CDT
Civil Twilight 6:04 AM CDT 8:59 PM CDT
Nautical Twilight 5:27 AM CDT 9:35 PM CDT
Astronomical Twilight 4:48 AM CDT 10:14 PM CDT
Moon 7:01 PM CDT (8/12) 3:43 AM CDT (8/12)
Length of Visible Light 14h 55m
Length of Day
13h 55m
Waxing Gibbous, 93% of the Moon is Illuminated
Aug 12
Waxing Gibbous
Aug 15
Full
Aug 23
Last Quarter
Aug 30
New
Sep 5
First Quarter

Hourly Weather History & Observations

Time (CDT) Temp. Heat Index Dew Point Humidity Pressure Visibility Wind Dir Wind Speed Gust Speed Precip Events Conditions
12:54 AM 77.0 °F - 70.0 °F 79% 29.85 in 10.0 mi ESE 9.2 mph - N/A   Partly Cloudy
1:54 AM 77.0 °F - 70.0 °F 79% 29.81 in 10.0 mi SE 13.8 mph - N/A   Overcast
2:19 AM 77.0 °F - 71.1 °F 82% 29.81 in 10.0 mi SE 19.6 mph 27.6 mph 0.00 in Rain , Thunderstorm Light Thunderstorms and Rain
2:32 AM 73.9 °F - 70.0 °F 87% 29.86 in 2.0 mi South 21.9 mph 36.8 mph 0.01 in Rain , Thunderstorm Heavy Thunderstorms and Rain
2:39 AM 71.1 °F - 68.0 °F 90% 29.86 in 1.0 mi South 15.0 mph 29.9 mph 0.20 in Rain , Thunderstorm Heavy Thunderstorms and Rain
2:48 AM 71.6 °F - 68.0 °F 88% 29.87 in 3.0 mi SSW 11.5 mph - 0.35 in Rain , Thunderstorm Thunderstorms and Rain
2:54 AM 71.1 °F - 68.0 °F 90% 29.83 in 5.0 mi South 8.1 mph - 0.37 in Rain , Thunderstorm Thunderstorms and Rain
3:16 AM 70.0 °F - 68.0 °F 93% 29.84 in 5.0 mi South 11.5 mph - 0.06 in Rain Rain
3:28 AM 70.0 °F - 68.0 °F 93% 29.83 in 7.0 mi South 10.4 mph - 0.09 in Rain , Thunderstorm Light Rain
3:54 AM 70.0 °F - 66.9 °F 90% 29.76 in 9.0 mi SSE 17.3 mph - 0.13 in Rain Light Rain
4:54 AM 70.0 °F - 66.9 °F 90% 29.75 in 10.0 mi SW 9.2 mph - 0.02 in   Clear
5:54 AM 69.1 °F - 66.0 °F 90% 29.74 in 10.0 mi South 5.8 mph - N/A   Clear
6:54 AM 69.1 °F - 66.0 °F 90% 29.77 in 10.0 mi SSE 3.5 mph - N/A   Clear
7:54 AM 71.1 °F - 69.1 °F 93% 29.78 in 10.0 mi South 4.6 mph - N/A   Mostly Cloudy
8:13 AM 72.0 °F - 68.0 °F 87% 29.81 in 10.0 mi South 5.8 mph - N/A   Overcast
8:31 AM 73.0 °F - 69.1 °F 87% 29.81 in 10.0 mi SSW 8.1 mph - N/A   Scattered Clouds
8:44 AM 73.0 °F - 69.1 °F 87% 29.82 in 10.0 mi South 9.2 mph - N/A   Mostly Cloudy
8:51 AM 75.2 °F - 69.8 °F 83% 29.82 in 10.0 mi SSW 8.1 mph - N/A   Scattered Clouds
8:54 AM 75.0 °F - 69.1 °F 82% 29.79 in 10.0 mi South 11.5 mph - N/A   Scattered Clouds
9:02 AM 75.0 °F - 69.1 °F 82% 29.83 in 10.0 mi SSW 8.1 mph - N/A   Mostly Cloudy
9:12 AM 75.9 °F - 69.1 °F 79% 29.83 in 10.0 mi SW 9.2 mph - N/A   Mostly Cloudy
9:54 AM 78.1 °F - 69.1 °F 74% 29.80 in 10.0 mi WSW 5.8 mph - N/A   Mostly Cloudy
10:45 AM 79.0 °F - 70.0 °F 74% 29.84 in 10.0 mi Variable 5.8 mph - N/A   Scattered Clouds
10:54 AM 80.1 °F 83.2 °F 70.0 °F 71% 29.81 in 10.0 mi Variable 3.5 mph - N/A   Partly Cloudy
11:54 AM 82.0 °F 86.3 °F 71.1 °F 69% 29.81 in 10.0 mi Calm Calm - N/A   Partly Cloudy
12:54 PM 84.0 °F 89.0 °F 71.1 °F 65% 29.80 in 10.0 mi Variable 4.6 mph - N/A   Clear
1:54 PM 87.1 °F 93.6 °F 72.0 °F 61% 29.78 in 10.0 mi Variable 4.6 mph - N/A   Clear
2:54 PM 89.1 °F 97.0 °F 73.0 °F 59% 29.80 in 10.0 mi North 10.4 mph - N/A   Mostly Cloudy
3:54 PM 87.1 °F 92.8 °F 71.1 °F 59% 29.81 in 10.0 mi NNW 10.4 mph - N/A   Mostly Cloudy
4:54 PM 84.9 °F 91.4 °F 73.0 °F 67% 29.81 in 10.0 mi North 10.4 mph - N/A   Mostly Cloudy
5:54 PM 87.1 °F 94.5 °F 73.0 °F 63% 29.81 in 10.0 mi North 8.1 mph - N/A   Clear
6:54 PM 86.0 °F 92.2 °F 72.0 °F 63% 29.81 in 10.0 mi North 8.1 mph - N/A   Partly Cloudy
7:54 PM 84.0 °F 90.2 °F 73.0 °F 69% 29.82 in 10.0 mi NNE 3.5 mph - N/A   Clear
8:54 PM 80.1 °F 83.8 °F 72.0 °F 76% 29.84 in 10.0 mi Calm Calm - N/A   Clear
9:54 PM 78.1 °F - 72.0 °F 81% 29.85 in 10.0 mi Calm Calm - N/A   Clear
10:54 PM 78.1 °F - 73.0 °F 84% 29.86 in 10.0 mi Calm Calm - 0.00 in   Partly Cloudy
11:54 PM 78.1 °F - 73.0 °F 84% 29.87 in 10.0 mi West 4.6 mph - N/A   Scattered Clouds